Date,TemperatureHighF,TemperatureAvgF,TemperatureLowF,DewpointHighF,DewpointAvgF,DewpointLowF,HumidityHigh,HumidityAvg,HumidityLow,PressureMaxIn,PressureMinIn,WindSpeedMaxMPH,WindSpeedAvgMPH,GustSpeedMaxMPH,PrecipitationSumIn
2013-1-1,26.2,24.6,23.2,21.5,18.4,16.3,85,77,72,30.50,30.38,8,2,13,0.00
2013-1-2,25.3,24.2,22.8,20.9,19.2,17.4,84,81,77,30.48,30.35,4,1,6,0.00
2013-1-3,27.6,23.5,18.1,20.8,16.0,11.7,83,73,61,30.35,30.23,7,2,9,0.00
2013-1-4,29.9,21.1,14.9,19.9,14.6,9.4,82,76,65,30.31,30.21,5,1,6,0.03
2013-1-5,27.7,25.3,20.9,24.9,21.7,15.4,91,86,77,30.27,30.11,2,0,4,0.01
2013-1-6,25.7,23.0,20.8,23.1,20.5,18.0,91,90,89,30.14,29.98,4,0,6,0.02
2013-1-7,53.6,42.3,24.9,41.7,33.9,22.5,92,73,57,30.01,29.82,23,6,34,0.19
2013-1-8,57.4,47.3,39.2,45.0,38.3,33.4,92,72,57,30.05,29.80,13,3,22,0.01
2013-1-9,51.4,42.7,34.5,37.3,30.0,22.8,76,61,50,29.81,29.55,21,6,31,0.00
2013-1-10,43.4,33.1,25.7,27.9,23.9,21.4,86,70,48,29.90,29.79,6,1,9,0.00
2013-1-11,37.5,30.2,22.3,24.9,20.6,16.5,82,68,45,30.15,29.90,6,1,8,0.00
2013-1-12,34.4,23.8,17.1,18.7,16.1,13.2,86,73,48,30.25,30.14,4,0,5,0.00
2013-1-13,34.4,22.8,14.9,18.2,14.9,10.4,85,73,50,30.33,30.24,3,0,5,0.00
2013-1-14,43.5,25.7,17.4,26.9,18.2,12.8,85,74,48,30.34,30.19,8,1,12,0.00
2013-1-15,45.7,31.9,23.1,27.7,24.0,20.1,90,74,49,30.48,30.34,4,0,6,0.00
2013-1-16,46.9,30.8,20.5,29.2,23.8,17.2,89,77,47,30.46,30.35,8,1,12,0.01
2013-1-17,29.2,27.3,25.6,24.4,22.8,21.0,86,83,79,30.45,30.29,5,2,7,0.00
2013-1-18,53.9,34.2,23.6,28.3,24.5,20.6,90,71,35,30.29,30.13,6,1,9,0.00
2013-1-19,40.7,30.8,23.8,27.8,24.2,19.9,87,77,57,30.35,30.18,6,2,10,0.00
2013-1-20,28.1,26.1,23.6,22.9,21.2,18.8,85,82,78,30.42,30.31,6,2,8,0.00
2013-1-21,28.1,26.0,24.1,21.9,20.7,19.5,84,80,75,30.31,30.18,5,1,7,0.00
2013-1-22,28.9,26.5,24.7,21.6,20.3,18.7,81,77,72,30.21,30.04,5,2,8,0.00
2013-1-23,30.9,28.1,25.8,24.5,21.6,19.8,81,76,68,30.06,29.88,6,2,9,0.00
2013-1-24,43.4,31.9,20.6,32.7,26.2,17.3,90,80,63,30.13,30.01,4,0,7,0.01
2013-1-25,42.7,37.7,34.8,37.4,33.9,30.8,90,86,81,30.03,29.83,4,0,5,0.03
2013-1-26,50.0,37.5,30.2,42.1,30.7,26.9,94,78,47,29.91,29.79,15,3,21,0.01
2013-1-27,46.4,36.2,27.0,31.8,27.7,24.1,90,73,50,29.96,29.87,16,2,23,0.00
2013-1-28,46.1,41.5,34.7,34.9,32.3,29.1,82,70,59,29.95,29.87,17,5,26,0.00
2013-1-29,49.2,46.4,43.5,37.0,35.4,33.0,69,65,61,30.23,29.92,20,11,29,0.00
2013-1-30,53.4,49.6,45.5,39.2,37.0,33.6,65,62,56,30.25,30.20,18,7,25,0.00
2013-1-31,55.9,45.5,36.2,40.0,36.3,32.1,87,71,51,30.25,30.16,9,2,13,0.00
2013-2-1,52.7,39.1,28.0,37.6,32.3,25.1,90,78,55,30.30,30.18,5,1,6,0.00
2013-2-2,49.7,36.4,26.0,38.7,30.9,22.8,91,81,61,30.34,30.15,3,0,4,0.01
2013-2-3,50.1,38.4,26.0,38.0,32.0,22.9,93,79,59,30.17,30.03,5,0,7,0.00
2013-2-4,51.0,41.5,34.2,39.4,35.7,32.3,94,81,62,30.05,29.82,4,0,5,0.00
2013-2-5,55.2,41.8,32.4,39.1,33.4,28.8,89,74,44,29.90,29.78,15,2,20,0.01
2013-2-6,52.9,42.9,36.7,35.0,32.1,30.1,82,67,43,29.98,29.77,8,2,12,0.00
2013-2-7,49.5,39.1,28.9,31.7,28.7,21.4,84,68,35,29.98,29.77,11,2,18,0.00
2013-2-8,49.8,33.9,22.1,28.9,23.7,18.3,87,68,39,30.09,29.98,7,1,10,0.00
2013-2-9,52.2,35.4,23.2,34.6,27.0,19.5,87,73,50,30.12,29.99,9,2,13,0.00
2013-2-10,54.1,37.2,24.9,34.1,27.8,21.8,91,71,41,30.20,30.08,4,1,6,0.00
2013-2-11,55.8,38.1,24.3,36.9,29.3,20.0,89,72,47,30.19,30.09,12,2,20,0.00
2013-2-12,54.9,44.4,33.6,41.7,34.6,30.3,90,70,47,30.26,30.18,20,6,28,0.00
2013-2-13,54.7,48.3,36.6,38.6,36.0,31.6,85,63,44,30.33,30.21,23,7,32,0.00
2013-2-14,57.6,41.5,29.6,40.8,33.8,26.0,90,75,53,30.39,30.31,8,1,10,0.00
2013-2-15,57.9,41.8,28.9,41.5,34.8,26.6,94,78,54,30.39,30.14,6,1,9,0.00
2013-2-16,54.9,40.5,28.7,38.8,31.6,26.3,94,73,44,30.14,30.00,21,5,34,0.01
2013-2-17,48.7,38.4,28.2,30.7,26.6,23.0,83,63,44,30.10,29.97,12,2,17,0.00
2013-2-18,46.4,36.3,27.8,30.2,26.4,22.4,82,68,51,29.97,29.66,8,1,10,0.00
2013-2-19,47.6,34.6,24.2,32.5,25.7,19.7,86,71,48,29.84,29.61,9,1,13,0.00
2013-2-20,48.8,36.0,22.7,32.1,26.4,19.3,89,70,44,29.93,29.84,19,3,28,0.00
2013-2-21,46.9,40.6,29.4,33.1,30.3,26.6,90,68,54,30.00,29.93,17,5,24,0.00
2013-2-22,52.9,45.2,37.4,35.6,32.0,26.3,78,60,48,29.98,29.71,23,6,36,0.05
2013-2-23,47.4,40.0,32.7,30.1,26.8,23.7,78,60,43,30.24,29.85,23,7,31,0.00
2013-2-24,52.8,38.6,26.9,32.1,27.2,22.7,86,66,42,30.26,29.98,8,2,10,0.00
2013-2-25,47.7,41.7,33.8,31.7,29.3,24.8,75,62,44,30.18,29.96,27,9,34,0.01
2013-2-26,51.9,39.5,26.4,30.4,25.5,21.6,85,60,31,30.24,30.09,7,2,10,0.00
2013-2-27,54.9,42.9,31.5,38.5,30.4,23.3,77,62,37,30.18,30.11,10,2,16,0.00
2013-2-28,61.7,50.8,42.6,44.3,40.6,36.5,84,69,52,30.29,30.09,15,2,22,0.00
2013-3-1,64.5,55.0,43.0,45.8,41.3,37.3,82,61,44,30.31,30.19,12,3,18,0.00
2013-3-2,56.6,45.5,38.3,42.5,37.6,29.3,89,75,53,30.19,29.95,22,3,30,0.00
2013-3-3,51.7,41.6,29.6,29.7,23.0,19.3,66,49,29,30.14,30.00,14,4,22,0.00
2013-3-4,52.4,35.9,21.7,24.9,20.5,15.6,79,56,29,30.15,29.88,14,2,20,0.00
2013-3-5,46.2,37.1,29.5,33.9,26.2,18.1,85,65,45,29.89,29.62,9,2,13,0.00
2013-3-6,42.8,37.6,32.5,37.7,33.0,29.6,91,84,69,29.82,29.47,4,1,7,0.29
2013-3-7,52.4,41.2,29.6,33.4,29.1,25.3,86,64,37,29.94,29.82,7,2,12,0.00
2013-3-8,54.7,40.8,28.0,34.2,28.3,24.0,86,64,34,30.07,29.90,10,2,14,0.00
2013-3-9,61.9,43.0,26.2,33.5,24.9,18.6,84,54,22,30.33,30.08,7,1,9,0.00
2013-3-10,62.7,44.7,30.6,41.9,31.7,23.3,78,62,35,30.33,30.18,20,4,28,0.00
2013-3-11,58.2,48.4,39.5,43.8,39.2,34.5,84,71,56,30.25,30.10,14,1,20,0.00
2013-3-12,63.7,50.9,39.3,44.8,39.8,35.3,88,68,42,30.11,29.98,15,3,22,0.00
2013-3-13,71.4,54.4,43.0,45.3,40.6,37.1,81,62,33,30.09,29.96,9,1,12,0.00
2013-3-14,70.7,53.4,43.6,45.0,36.9,17.4,83,60,15,30.05,29.90,23,4,30,0.00
2013-3-15,62.9,53.8,45.0,44.9,41.5,38.1,82,64,45,30.10,30.01,11,3,16,0.00
2013-3-16,56.7,47.8,39.1,38.8,34.9,29.3,82,62,44,30.01,29.77,23,7,34,0.02
2013-3-17,46.7,41.9,38.2,29.6,25.5,22.6,68,52,42,30.08,29.91,23,9,31,0.00
2013-3-18,54.3,42.0,28.6,29.4,26.4,23.6,83,56,34,30.09,30.02,15,5,22,0.00
2013-3-19,49.7,39.4,30.0,37.3,28.3,22.1,87,65,46,30.09,29.67,6,1,9,0.16
2013-3-20,54.7,43.2,37.4,45.3,35.0,24.0,91,74,43,29.96,29.44,33,7,45,0.15
2013-3-21,47.9,41.0,35.1,31.7,27.6,24.3,84,59,44,30.10,29.95,21,7,31,0.00
2013-3-22,46.7,38.0,29.4,30.7,24.4,17.8,85,60,34,30.21,30.08,17,3,23,0.03
2013-3-23,48.0,37.0,29.3,26.7,24.1,21.0,79,61,36,30.24,30.12,6,1,8,0.00
2013-3-24,50.4,38.8,26.4,29.3,24.8,19.9,80,59,40,30.18,30.03,14,2,21,0.00
2013-3-25,56.2,44.2,31.5,33.9,28.5,23.2,76,56,38,30.04,29.82,12,3,18,0.00
2013-3-26,56.6,48.1,41.5,40.4,34.9,31.3,76,61,44,29.91,29.82,6,1,8,0.01
2013-3-27,63.2,50.4,38.9,45.3,40.6,35.5,89,71,44,29.89,29.78,13,1,18,0.00
2013-3-28,63.4,53.2,43.8,48.5,41.4,38.1,84,66,45,30.00,29.89,8,1,13,0.00
2013-3-29,68.1,57.1,49.2,47.2,43.8,41.1,81,63,40,30.10,30.00,7,1,12,0.00
2013-3-30,72.5,55.7,39.1,46.9,40.9,35.1,86,61,38,30.14,29.94,13,2,17,0.00
2013-3-31,70.9,55.5,39.1,41.3,36.7,32.5,78,52,30,29.98,29.79,12,2,17,0.00
2013-4-1,72.3,55.2,40.8,48.1,41.3,34.1,84,61,42,29.98,29.85,21,3,28,0.00
2013-4-2,70.3,54.7,40.1,45.0,41.1,36.3,87,63,37,30.06,29.97,20,5,26,0.00
2013-4-3,70.9,55.7,39.0,44.8,40.7,35.9,90,61,31,30.05,29.84,9,1,12,0.00
2013-4-4,63.2,56.4,52.0,54.8,45.5,42.2,81,67,55,29.84,29.58,17,3,28,0.08
2013-4-5,63.9,54.1,48.0,46.8,42.7,39.3,88,66,44,29.82,29.75,18,4,27,0.03
2013-4-6,58.4,51.0,44.7,45.4,39.5,36.1,89,65,47,29.87,29.68,19,4,26,0.02
2013-4-7,54.2,47.3,41.9,41.1,35.8,30.3,91,66,44,29.75,29.49,28,7,38,0.06
2013-4-8,57.2,46.1,34.8,34.6,32.0,29.1,83,60,39,30.13,29.75,11,2,16,0.00
2013-4-9,64.6,48.7,30.8,38.5,32.4,26.5,86,57,29,30.23,30.10,11,2,16,0.00
2013-4-10,64.8,53.8,46.4,45.9,40.0,36.4,73,60,44,30.11,29.92,27,5,40,0.00
2013-4-11,59.6,52.4,41.1,34.9,32.6,30.4,66,48,36,30.14,30.02,21,3,34,0.00
2013-4-12,60.1,46.7,31.1,37.2,32.2,26.3,84,60,33,30.04,29.65,21,4,30,0.00
2013-4-13,51.2,46.5,41.9,35.6,26.7,20.4,58,46,34,29.90,29.65,27,12,38,0.00
2013-4-14,52.3,44.9,37.9,32.9,27.2,22.7,64,50,35,29.92,29.75,17,4,24,0.01
2013-4-15,49.0,39.7,31.5,36.3,30.5,24.7,85,70,50,30.02,29.79,17,3,24,0.05
2013-4-16,52.2,42.5,32.3,38.0,28.8,20.8,92,63,34,30.27,30.02,12,3,18,0.00
2013-4-17,59.9,44.6,27.7,33.1,26.8,20.9,81,53,27,30.35,30.24,11,2,14,0.00
2013-4-18,66.0,52.1,38.7,42.2,37.6,31.1,79,59,39,30.30,30.15,22,4,32,0.00
2013-4-19,61.9,56.2,50.8,43.3,41.3,38.1,65,57,47,30.15,29.97,25,9,35,0.00
2013-4-20,61.4,53.4,46.9,38.6,36.5,33.6,69,54,37,30.13,30.06,22,8,32,0.00
2013-4-21,60.6,51.3,39.8,40.1,36.7,32.8,79,58,45,30.15,30.01,23,7,30,0.00
2013-4-22,58.2,49.9,39.1,36.6,27.0,16.0,75,44,23,30.35,30.15,15,4,21,0.00
2013-4-23,66.0,48.2,28.5,26.1,19.2,11.4,63,36,14,30.32,30.02,14,3,20,0.00
2013-4-24,72.5,52.8,31.8,31.0,22.9,17.3,62,35,13,30.24,29.89,8,1,12,0.00
2013-4-25,78.6,59.9,41.0,40.3,34.1,25.4,71,41,22,29.99,29.85,12,2,20,0.00
2013-4-26,83.3,64.6,43.5,42.4,35.6,23.0,78,40,12,30.12,29.99,14,2,21,0.00
2013-4-27,77.3,62.3,45.9,42.0,35.4,27.3,64,39,16,30.10,29.98,21,5,33,0.00
2013-4-28,65.0,58.5,50.0,43.6,38.5,34.6,72,49,33,30.10,29.90,23,8,32,0.00
2013-4-29,60.2,54.2,43.2,43.4,34.6,25.5,59,48,35,30.00,29.86,30,12,40,0.00
2013-4-30,54.9,45.4,33.2,27.6,24.5,21.5,65,45,29,30.29,29.99,18,4,29,0.00
2013-5-1,67.2,50.0,30.1,30.4,25.7,20.1,74,44,18,30.44,30.29,11,2,20,0.00
2013-5-2,77.5,58.9,38.4,33.9,28.0,23.6,61,34,15,30.44,30.12,10,2,13,0.00
2013-5-3,77.1,62.8,45.0,39.3,34.8,30.4,63,38,22,30.20,30.01,15,2,20,0.00
2013-5-4,76.6,63.0,44.2,39.5,33.6,28.5,64,36,18,30.09,29.85,26,7,36,0.00
2013-5-5,79.0,65.3,47.6,39.9,36.1,31.3,56,36,21,29.86,29.66,16,4,25,0.00
2013-5-6,85.3,68.7,47.8,48.1,39.4,33.3,63,38,16,29.78,29.60,13,2,18,0.00
2013-5-7,85.1,70.8,54.0,51.5,47.4,41.6,73,46,23,29.81,29.67,12,3,16,0.00
2013-5-8,87.3,70.1,51.1,52.7,49.0,44.6,80,51,26,29.93,29.80,12,3,20,0.00
2013-5-9,90.8,72.1,52.1,51.8,47.2,40.7,78,46,19,30.01,29.86,13,3,18,0.00
2013-5-10,94.1,75.2,54.1,52.1,45.8,38.3,67,39,16,30.05,29.89,12,2,20,0.00
2013-5-11,92.7,75.6,57.9,54.7,49.9,41.5,67,42,26,30.03,29.84,14,2,22,0.00
2013-5-12,82.3,71.4,60.4,56.2,53.5,43.8,75,55,27,29.94,29.86,16,3,24,0.00
2013-5-13,69.5,60.7,51.3,53.1,46.8,39.0,80,62,37,30.07,29.91,23,5,33,0.03
2013-5-14,69.4,58.2,44.4,41.0,36.4,28.0,76,47,27,30.10,29.92,14,3,20,0.00
2013-5-15,66.3,56.0,45.8,48.6,39.4,28.8,68,54,34,29.99,29.87,15,3,20,0.01
2013-5-16,71.5,57.0,45.2,47.9,44.8,40.9,88,66,34,29.91,29.73,17,3,25,0.05
2013-5-17,65.8,56.4,49.9,49.0,44.4,38.4,90,67,39,29.95,29.83,17,4,23,0.22
2013-5-18,62.4,53.4,41.9,46.7,42.1,38.1,87,67,48,30.13,29.95,17,4,24,0.02
2013-5-19,69.6,56.8,42.7,46.5,41.9,39.3,88,61,36,30.22,30.13,13,3,17,0.00
2013-5-20,80.5,61.9,41.5,48.3,39.0,17.7,84,50,10,30.20,29.74,9,2,17,0.00
2013-5-21,63.6,53.6,45.6,46.3,39.5,32.1,84,60,39,29.82,29.62,26,7,37,0.22
2013-5-22,49.9,46.5,42.8,41.9,35.5,29.6,88,66,51,29.86,29.80,16,3,20,0.12
2013-5-23,61.0,49.9,37.1,44.8,39.5,34.1,93,70,38,29.90,29.84,16,2,21,0.07
2013-5-24,63.0,53.4,45.2,44.4,40.7,35.7,91,65,39,29.93,29.87,17,5,25,0.06
2013-5-25,68.2,55.6,40.0,49.5,41.4,36.6,88,62,37,29.95,29.81,12,2,18,0.02
2013-5-26,69.0,57.6,52.1,52.7,48.8,39.5,91,74,37,29.88,29.83,16,2,21,0.24
2013-5-29,64.6,59.5,52.7,52.7,43.9,39.8,90,57,43,29.90,29.62,24,11,33,0.26
2013-5-30,66.0,56.5,47.4,42.2,39.7,36.8,73,55,36,30.10,29.91,17,5,23,0.00
2013-5-31,72.4,58.2,41.8,44.8,40.9,37.1,85,56,32,30.20,30.06,10,2,16,0.00
2013-6-1,78.5,63.7,47.1,49.5,44.9,39.1,82,54,27,30.10,29.87,14,3,21,0.00
2013-6-2,74.3,63.3,49.5,49.6,44.6,41.0,84,53,33,29.92,29.82,15,3,22,0.00
2013-6-3,80.1,64.9,46.6,46.7,42.2,34.9,81,48,24,29.96,29.82,10,2,14,0.00
2013-6-4,83.6,68.4,48.4,47.5,42.3,37.8,72,42,24,30.00,29.87,13,2,17,0.00
2013-6-5,90.7,72.9,53.0,55.0,45.9,39.9,65,41,25,29.95,29.79,13,2,20,0.00
2013-6-6,90.3,75.3,58.2,55.9,49.1,37.1,69,43,21,29.89,29.75,13,2,18,0.00
2013-6-7,86.0,72.1,58.3,53.8,48.2,40.7,65,45,25,29.94,29.85,20,5,33,0.00
2013-6-8,89.1,72.3,52.2,52.6,44.8,33.6,75,42,16,29.97,29.83,14,3,21,0.00
2013-6-9,82.1,69.5,54.9,49.1,41.1,21.9,69,40,13,29.89,29.75,12,3,20,0.00
2013-6-10,79.4,63.7,46.4,42.3,38.0,26.1,72,42,17,29.82,29.63,19,4,26,0.00
2013-6-11,65.9,58.9,52.4,42.8,38.5,33.5,67,48,33,29.99,29.76,23,10,32,0.00
2013-6-12,68.8,57.2,43.7,42.6,39.6,36.6,78,54,33,30.02,29.94,18,4,25,0.00
2013-6-13,65.6,56.2,46.5,48.1,42.0,38.6,78,60,43,30.12,30.00,21,6,28,0.04
2013-6-14,77.5,62.2,45.3,45.6,41.5,36.2,80,50,24,30.13,29.87,14,3,20,0.00
2013-6-15,86.5,68.8,47.8,53.0,43.0,35.8,72,44,17,29.89,29.71,15,2,22,0.00
2013-6-16,86.8,71.3,58.8,58.4,51.1,46.4,69,51,26,29.94,29.78,23,3,34,0.02
2013-6-17,81.9,68.9,56.2,59.8,51.7,48.1,80,56,32,29.95,29.75,12,3,20,0.05
2013-6-18,69.1,62.3,57.2,50.2,47.2,42.1,70,58,44,29.86,29.74,12,4,20,0.03
2013-6-19,67.3,60.3,55.2,45.6,42.7,39.5,63,53,42,29.92,29.77,24,10,32,0.00
2013-6-20,68.8,60.7,52.2,45.9,41.7,38.7,65,51,35,29.98,29.88,20,9,28,0.00
2013-6-21,71.7,61.7,52.3,49.7,46.1,42.2,87,59,37,30.03,29.95,11,2,16,0.06
2013-6-22,81.2,67.2,50.8,50.2,45.3,41.3,81,49,27,30.00,29.73,12,2,17,0.00
2013-6-23,75.7,67.3,61.7,60.4,53.2,48.0,90,63,39,29.75,29.56,9,1,12,0.10
2013-6-24,68.3,62.4,58.1,58.7,51.7,47.2,92,69,48,29.62,29.54,10,3,15,0.05
2013-6-25,70.3,61.6,55.9,57.3,54.0,50.8,92,77,53,29.79,29.61,11,1,20,0.32
2013-6-26,72.9,65.1,57.3,58.0,54.9,52.1,89,71,55,29.96,29.79,12,1,15,0.01
2013-6-27,85.8,72.3,57.6,61.3,57.4,53.3,87,62,39,30.05,29.95,15,2,20,0.00
2013-6-28,95.8,78.6,60.9,64.0,60.3,56.4,88,57,31,30.08,29.84,16,2,24,0.00
2013-6-29,93.1,81.3,68.7,65.0,59.2,50.6,75,49,32,29.92,29.81,11,2,17,0.00
2013-6-30,98.4,82.8,62.4,62.7,56.5,51.6,71,43,25,29.91,29.72,13,3,20,0.00
2013-7-1,103.0,89.7,74.9,66.7,58.3,53.2,60,37,20,29.83,29.73,12,3,17,0.00
2013-7-2,104.6,86.7,71.1,64.4,57.6,44.1,71,41,18,29.89,29.76,15,3,20,0.00
2013-7-3,94.6,80.1,65.7,53.8,41.3,4.1,61,31,4,29.93,29.79,17,5,25,0.00
2013-7-4,87.8,75.3,59.5,48.6,41.4,30.6,55,32,16,29.89,29.75,15,5,25,0.00
2013-7-5,82.5,68.4,52.0,47.9,44.9,40.1,72,46,24,29.86,29.69,17,3,26,0.00
2013-7-6,88.0,70.3,51.2,54.1,44.4,26.3,76,45,14,29.83,29.64,12,2,18,0.00
2013-7-7,91.5,74.7,57.6,53.9,49.0,35.6,75,45,17,29.78,29.63,16,3,20,0.00
2013-7-8,90.0,74.7,55.1,51.8,46.7,41.2,70,41,19,29.91,29.76,11,3,15,0.00
2013-7-9,97.4,78.7,57.6,57.2,48.8,43.5,63,38,17,29.97,29.77,13,3,20,0.00
2013-7-10,93.7,78.4,62.0,53.4,46.3,33.7,62,36,15,29.86,29.70,17,4,26,0.00
2013-7-11,84.8,71.7,56.6,50.0,37.7,19.3,60,33,11,29.84,29.73,12,3,20,0.00
2013-7-12,82.0,66.3,48.5,41.8,34.4,17.0,59,34,9,29.93,29.77,18,3,23,0.00
2013-7-13,84.7,68.1,48.5,43.8,32.9,14.1,67,33,9,30.05,29.88,11,2,17,0.00
2013-7-14,93.0,74.1,52.5,46.8,33.7,26.3,45,25,10,30.00,29.76,12,2,20,0.00
2013-7-15,90.1,74.9,54.1,44.5,40.4,35.4,53,31,16,29.88,29.71,14,4,25,0.00
2013-7-16,90.4,76.9,60.2,54.2,41.9,36.4,46,30,17,29.81,29.68,13,3,24,0.00
2013-7-17,92.8,80.2,64.9,54.4,50.7,43.1,57,37,20,29.97,29.77,14,4,20,0.00
2013-7-18,96.3,77.7,55.8,47.8,40.8,24.3,62,32,9,30.02,29.84,12,3,17,0.00
2013-7-19,98.3,79.9,57.7,47.2,35.1,20.6,51,24,7,29.95,29.77,12,2,14,0.00
2013-7-20,98.8,78.6,55.6,50.0,36.9,4.4,56,29,4,29.87,29.69,12,2,20,0.00
2013-7-21,99.3,77.8,54.1,49.9,39.9,18.3,56,30,7,29.78,29.64,17,3,23,0.00
2013-7-22,97.6,79.8,57.6,49.8,41.1,22.8,60,30,9,29.82,29.72,11,3,16,0.00
2013-7-23,100.2,79.0,55.7,45.6,35.3,13.7,46,24,5,29.90,29.72,12,2,17,0.00
2013-7-24,99.9,80.0,56.6,45.4,35.1,13.4,48,24,5,29.88,29.75,16,3,25,0.00
2013-7-25,101.3,79.1,55.0,39.2,26.0,-9.9,43,20,2,29.91,29.81,11,2,16,0.00
2013-7-26,102.5,79.9,57.9,49.8,25.1,-20.6,42,20,1,29.95,29.82,16,2,21,0.00
2013-7-27,90.9,75.5,57.4,48.5,36.3,27.4,49,28,11,29.97,29.77,19,3,28,0.00
2013-7-28,87.7,70.6,52.0,44.3,38.9,31.8,52,34,14,29.84,29.71,16,4,22,0.00
2013-7-29,89.2,71.8,52.0,46.7,41.8,33.0,64,38,16,29.84,29.71,12,3,18,0.00
2013-7-30,91.9,75.7,57.2,49.1,44.0,32.0,64,36,14,29.96,29.84,13,2,20,0.00
2013-7-31,89.5,77.1,66.2,54.1,42.1,35.0,50,30,18,29.94,29.79,17,2,26,0.00
2013-8-1,80.3,70.4,63.1,54.5,51.8,48.3,64,52,38,29.91,29.80,25,8,38,0.00
2013-8-2,81.9,68.2,55.4,52.4,49.5,46.0,73,53,33,29.98,29.86,13,3,21,0.00
2013-8-3,87.6,71.1,53.5,54.9,49.2,43.5,77,50,23,29.99,29.82,12,2,17,0.00
2013-8-4,93.4,77.2,59.3,56.1,50.8,45.2,67,43,20,29.93,29.72,13,2,23,0.00
2013-8-5,94.4,79.2,62.6,55.6,50.3,42.8,64,40,19,29.87,29.72,13,2,20,0.00
2013-8-6,97.5,78.6,57.2,53.8,44.7,30.9,64,35,10,29.86,29.72,14,2,20,0.00
2013-8-7,95.3,76.5,56.2,52.9,38.4,7.0,49,30,5,29.86,29.73,19,4,28,0.00
2013-8-8,92.9,79.7,68.0,57.2,51.0,44.8,55,39,20,29.84,29.70,11,2,16,0.00
2013-8-9,94.5,75.8,65.1,61.9,55.3,43.8,80,53,18,29.85,29.62,26,2,38,0.27
2013-8-10,78.8,69.3,59.9,64.6,57.8,50.4,89,68,40,29.88,29.77,16,2,22,0.09
2013-8-11,85.4,71.7,58.0,59.0,55.1,52.1,91,59,33,29.93,29.78,11,1,15,0.00
2013-8-12,88.3,72.4,56.6,56.2,53.4,50.6,84,54,32,29.91,29.77,15,2,20,0.00
2013-8-13,92.6,74.9,56.4,53.8,48.2,37.8,80,45,19,29.96,29.77,11,2,15,0.00
2013-8-14,92.8,76.3,60.7,57.2,51.7,43.1,64,44,27,29.84,29.71,12,2,20,0.00
2013-8-15,90.9,75.3,59.7,62.2,54.5,47.7,70,50,28,29.85,29.73,12,2,17,0.00
2013-8-16,86.3,74.9,67.7,64.6,59.8,57.7,74,61,39,29.88,29.80,10,1,14,0.02
2013-8-17,87.2,74.1,60.3,60.5,57.5,52.8,85,59,37,29.93,29.82,17,3,24,0.00
2013-8-18,92.0,73.8,57.1,60.3,54.3,47.2,83,54,28,29.98,29.83,13,2,20,0.00
2013-8-19,89.7,73.9,57.3,58.1,51.3,46.8,71,48,28,29.95,29.83,18,3,25,0.00
2013-8-20,88.8,73.1,55.1,54.0,45.8,31.9,75,43,14,29.97,29.81,10,2,15,0.00
2013-8-21,87.5,73.3,55.3,51.5,46.1,40.1,72,42,21,29.94,29.77,14,2,21,0.00
2013-8-22,88.5,73.6,59.0,59.8,47.4,37.2,67,41,23,29.83,29.71,19,2,27,0.00
2013-8-23,85.3,73.3,63.0,60.6,55.3,46.3,86,56,29,29.78,29.67,17,4,23,0.08
2013-8-24,83.7,68.7,56.4,56.9,51.9,48.3,78,57,35,29.77,29.64,14,2,21,0.00
2013-8-25,78.8,67.2,60.7,61.9,53.3,49.9,89,62,45,29.81,29.71,23,1,34,0.19
2013-8-26,81.1,72.5,59.3,60.2,54.1,47.5,92,55,34,29.85,29.76,16,3,22,0.00
2013-8-27,87.0,70.2,54.5,59.8,53.6,48.4,82,58,32,29.88,29.61,8,1,12,0.00
2013-8-28,89.5,75.1,60.8,62.7,57.7,53.7,80,57,32,29.76,29.66,10,1,16,0.00
2013-8-29,87.0,76.1,67.3,61.4,58.5,54.9,74,56,36,29.93,29.75,17,3,25,0.03
2013-8-30,84.2,72.3,60.0,60.5,56.7,53.1,86,60,36,30.03,29.88,11,2,16,0.00
2013-8-31,89.8,73.5,56.1,57.9,54.4,49.5,87,55,33,29.94,29.71,10,2,15,0.00
2013-9-1,94.3,76.1,58.6,59.0,53.4,48.3,70,48,25,29.77,29.58,14,2,22,0.00
2013-9-2,88.7,73.6,59.6,58.1,55.2,51.5,77,55,30,29.78,29.65,15,3,23,0.00
2013-9-3,86.1,73.5,63.1,59.7,55.3,52.5,71,55,33,29.84,29.74,16,2,23,0.00
2013-9-4,89.0,71.6,57.6,60.6,54.9,50.6,80,58,30,29.88,29.75,16,2,22,0.00
2013-9-5,82.3,68.4,56.7,60.7,54.1,49.9,79,62,40,29.85,29.68,32,2,44,0.20
2013-9-9,90.8,78.3,55.4,58.7,54.4,48.8,85,47,27,29.91,29.74,7,1,10,0.20
2013-9-10,90.7,75.0,59.0,62.0,55.6,49.9,81,55,26,29.88,29.75,11,2,17,0.00
2013-9-11,93.4,76.1,58.6,59.7,54.4,49.2,75,50,28,29.91,29.78,10,2,15,0.00
2013-9-12,96.8,78.2,59.2,58.9,53.1,48.3,75,46,20,29.88,29.70,9,1,13,0.00
2013-9-13,95.3,77.4,60.1,59.1,53.6,48.5,74,47,22,29.78,29.60,9,2,12,0.00
2013-9-14,94.0,77.0,58.1,55.2,52.6,48.7,72,46,25,29.73,29.57,12,2,17,0.00
2013-9-15,92.0,76.9,66.6,59.0,54.9,49.0,62,48,28,29.71,29.47,27,4,34,0.00
2013-9-16,77.3,67.5,58.6,53.2,50.6,48.0,69,56,39,29.82,29.71,14,4,20,0.00
2013-9-17,71.4,60.4,53.5,51.2,46.7,39.3,81,62,36,29.83,29.66,22,4,30,0.00
2013-9-18,72.8,62.2,53.8,48.1,44.2,40.6,71,53,34,29.95,29.83,13,3,18,0.00
2013-9-19,79.8,61.1,42.7,45.1,41.0,36.6,81,52,27,29.97,29.71,11,1,18,0.00
2013-9-20,81.0,62.2,46.4,53.5,42.5,36.8,83,51,24,29.72,29.46,18,2,25,0.09
2013-9-21,72.1,61.6,55.9,54.6,50.7,46.0,90,69,40,29.65,29.54,15,3,20,0.01
2013-9-22,66.3,57.7,51.9,55.6,47.8,43.3,89,70,47,29.75,29.58,18,2,23,0.15
2013-9-23,67.3,60.1,54.3,50.7,47.4,44.2,80,63,49,29.85,29.74,15,4,20,0.00
2013-9-24,62.0,54.6,50.8,52.0,47.3,40.3,92,77,53,29.84,29.72,15,2,20,0.18
2013-9-25,61.6,52.6,45.9,45.0,42.0,39.1,87,68,48,29.86,29.71,11,1,14,0.00
2013-9-26,64.8,51.6,39.4,45.2,41.0,36.1,90,69,43,30.02,29.86,12,1,15,0.01
2013-9-27,65.0,53.4,40.0,50.7,42.9,36.1,87,69,42,30.03,29.82,11,2,15,0.04
2013-9-28,71.6,59.1,53.5,54.8,50.7,49.1,86,75,49,29.82,29.57,16,2,23,0.00
2013-10-1,56.5,51.9,45.4,43.3,39.6,35.8,76,63,50,30.09,29.90,17,4,21,0.02
2013-10-2,45.4,40.7,38.4,36.7,35.6,34.5,87,82,70,30.09,30.05,3,0,6,0.00
2013-10-3,61.7,53.0,41.3,41.3,39.3,36.8,85,61,44,30.31,30.18,6,1,8,0.00
2013-10-4,64.9,49.3,34.7,42.7,37.3,31.8,92,66,39,30.41,30.26,5,0,7,0.00
2013-10-5,72.0,52.5,36.4,42.0,37.8,32.9,89,61,27,30.30,30.08,5,0,7,0.00
2013-10-6,74.5,54.4,37.8,42.9,38.8,34.6,88,60,27,30.13,29.84,6,0,9,0.00
2013-10-7,61.4,54.5,46.4,45.0,40.0,37.4,80,59,46,29.98,29.84,22,7,31,0.00
2013-10-8,59.2,51.0,41.3,45.2,40.0,36.2,84,67,52,29.97,29.82,15,4,23,0.05
2013-10-9,54.7,46.5,36.2,41.7,38.6,34.1,95,75,56,30.00,29.85,5,0,8,0.01
2013-10-10,64.3,50.4,38.8,42.9,39.4,34.9,89,68,39,30.06,28.78,20,2,20,0.00
2013-10-11,58.9,48.1,39.8,42.4,39.3,36.2,88,73,52,30.15,30.06,12,1,12,0.00
2013-10-12,53.9,47.4,41.5,44.4,40.8,35.9,88,78,66,30.17,30.05,12,1,12,0.04
2013-10-13,61.9,51.9,42.4,44.9,41.1,35.8,89,68,42,30.33,30.16,10,1,10,0.00
2013-10-14,62.7,47.3,34.3,41.7,35.1,30.9,94,66,33,30.44,30.32,12,2,12,0.00
2013-10-15,62.5,45.9,31.9,36.3,32.5,27.6,86,62,34,30.44,30.20,9,1,9,0.00
2013-10-16,63.6,47.8,34.8,40.2,34.7,30.9,88,63,37,30.22,30.13,12,2,12,0.00
2013-10-17,66.2,48.8,34.2,40.8,35.5,29.4,84,63,39,30.31,30.21,14,2,14,0.00
2013-10-18,66.2,47.8,33.3,41.1,35.4,29.6,87,65,38,30.33,30.17,5,1,5,0.00
2013-10-19,70.9,49.9,33.4,40.6,35.5,29.6,88,61,32,30.21,30.06,4,1,4,0.00
2013-10-20,73.3,52.9,36.4,42.1,36.8,31.9,86,58,29,30.22,30.09,7,1,7,0.00
2013-10-21,73.9,54.3,38.6,44.0,38.3,33.4,84,58,33,30.23,30.10,14,2,14,0.00
2013-10-22,72.7,53.9,38.7,44.5,39.4,33.8,84,61,35,30.23,30.05,9,1,9,0.00
2013-10-23,69.7,52.6,38.4,46.6,40.3,34.6,87,65,43,30.16,30.04,13,1,13,0.00
2013-10-24,70.0,51.7,38.1,45.4,40.2,34.3,88,67,41,30.16,30.04,4,0,4,0.00
2013-10-25,70.2,51.6,38.0,47.1,41.0,35.0,90,69,42,30.26,30.14,4,1,4,0.00
2013-10-26,65.8,49.4,36.2,48.6,41.1,33.5,94,75,52,30.31,30.14,10,1,10,0.01
2013-10-27,58.3,46.6,36.4,43.9,40.0,34.1,95,79,51,30.15,29.77,30,5,30,0.09
2013-10-28,51.3,46.4,35.5,41.7,27.6,22.8,74,49,34,29.99,29.85,32,12,32,0.00
2013-10-29,53.3,38.5,26.5,29.3,24.4,21.3,83,59,32,30.09,29.99,7,1,7,0.00
2013-10-30,60.7,42.7,26.7,36.2,29.3,22.9,87,62,34,30.15,30.07,17,2,17,0.00
2013-10-31,65.8,53.9,43.2,48.7,41.8,35.1,79,64,50,30.27,30.11,22,6,22,0.00
2013-11-1,63.3,48.0,34.0,44.3,37.8,30.4,89,70,42,30.31,29.94,5,0,5,0.00
2013-11-2,56.4,49.3,42.8,44.5,37.1,31.5,83,63,44,30.02,29.74,38,10,38,0.03
2013-11-3,49.9,44.3,38.1,33.6,32.0,29.0,79,62,48,30.11,30.00,26,8,26,0.00
2013-11-4,46.2,40.1,33.7,37.1,33.5,29.3,85,78,68,30.18,30.10,12,2,12,0.01
2013-11-5,58.8,48.5,40.4,45.8,41.4,36.2,90,77,58,30.22,30.08,18,3,18,0.00
2013-11-6,51.9,46.6,42.0,46.9,43.0,39.1,91,87,77,30.33,30.18,6,1,6,0.18
2013-11-7,55.6,47.5,43.0,44.2,39.3,33.9,92,75,51,30.18,29.91,28,6,28,0.03
2013-11-8,52.2,48.0,39.4,38.0,36.6,33.6,81,65,57,30.18,30.07,16,6,16,0.00
2013-11-9,48.4,41.8,34.0,39.7,36.0,30.8,90,80,69,30.17,30.09,4,0,4,0.00
2013-11-10,53.3,44.6,39.7,42.5,39.4,37.1,91,82,63,30.23,30.12,5,0,5,0.00
2013-11-11,47.8,45.5,41.7,42.2,40.6,38.6,89,83,75,30.34,30.23,7,1,7,0.00
2013-11-12,55.0,46.9,39.7,46.1,42.4,36.7,92,84,72,30.42,30.23,5,1,5,0.04
2013-11-13,56.0,42.5,35.9,50.8,38.4,33.8,96,86,65,30.49,30.28,6,1,6,0.01
2013-11-14,47.7,39.8,33.4,41.1,35.6,30.4,94,85,74,30.28,30.05,9,1,9,0.00
2013-11-15,49.6,39.9,27.8,36.3,31.3,24.7,98,73,55,30.05,29.49,26,7,26,0.01
2013-11-16,50.3,46.4,43.0,38.3,35.3,30.6,75,65,48,29.81,29.45,30,12,30,0.00
2013-11-17,57.3,49.7,45.0,38.3,36.5,34.8,72,61,48,30.00,29.81,22,6,22,0.00
2013-11-18,53.9,47.9,40.5,40.3,36.7,32.9,78,65,55,29.99,29.74,9,2,9,0.00
2013-11-19,54.1,52.9,51.1,40.9,40.4,39.6,65,63,60,29.75,29.72,8,2,8,0.00
2013-11-21,36.8,27.6,15.7,15.2,10.9,8.4,77,51,31,30.71,30.62,6,0,6,0.00
2013-11-22,37.4,24.4,13.9,15.7,12.4,7.5,78,61,37,30.78,30.66,12,1,12,0.00
2013-11-23,38.5,25.4,15.2,18.8,15.1,9.9,81,66,44,30.66,30.38,4,0,4,0.00
2013-11-24,43.7,27.3,16.7,22.0,17.4,11.4,84,68,41,30.42,30.28,5,0,5,0.00
2013-11-25,41.8,28.3,18.7,23.3,18.7,13.8,83,68,45,30.49,30.40,2,0,2,0.00
2013-11-26,39.5,28.4,20.4,25.5,20.7,15.8,84,73,56,30.42,30.23,4,0,4,0.00
2013-11-27,39.8,29.6,23.8,27.3,22.8,18.9,84,76,60,30.23,30.13,4,0,4,0.00
2013-11-28,42.7,28.7,19.7,29.6,22.1,15.9,88,77,56,30.26,30.16,5,0,5,0.00
2013-11-29,41.7,31.6,21.1,30.8,25.1,17.9,89,77,63,30.32,30.24,6,0,6,0.00
2013-11-30,48.2,40.2,35.4,37.0,33.7,29.6,86,78,64,30.36,30.21,8,1,8,0.00
2013-12-1,63.9,54.4,39.7,47.1,43.5,35.0,86,67,51,30.21,29.88,32,9,32,0.27
2013-12-2,50.7,41.8,30.7,44.7,32.6,22.5,85,70,45,30.00,29.82,26,8,26,0.20
2013-12-3,33.3,27.7,17.9,26.4,18.5,8.5,88,70,37,30.29,30.00,18,2,18,0.01
2013-12-4,28.3,18.6,11.9,13.1,8.9,4.7,80,67,43,30.38,30.29,7,1,7,0.00
2013-12-5,24.6,16.2,7.2,10.7,7.0,1.8,79,67,51,30.36,30.23,12,1,12,0.00
2013-12-6,19.4,17.7,16.1,13.3,10.4,8.0,83,73,65,30.27,30.12,21,5,21,0.00
2013-12-7,17.0,10.0,-1.7,8.9,-2.7,-9.1,73,57,35,30.46,30.16,14,2,14,0.02
2013-12-8,14.3,2.9,-5.1,-0.8,-5.9,-12.1,75,67,48,30.61,30.45,7,1,7,0.00
2013-12-9,26.3,12.4,0.5,12.6,3.7,-5.8,79,68,50,30.61,30.43,8,0,8,0.01
2013-12-10,29.0,19.9,13.9,19.0,13.7,9.4,84,77,65,30.49,30.42,4,0,4,0.00
2013-12-11,27.5,20.3,13.5,19.2,14.9,9.7,87,80,68,30.47,30.34,5,0,5,0.00
2013-12-12,26.2,19.5,12.3,20.6,14.9,8.4,86,82,76,30.35,30.16,6,0,6,0.00
2013-12-13,43.8,30.3,20.5,32.5,25.0,17.5,90,81,62,30.47,30.22,6,1,6,0.00
2013-12-14,40.2,34.6,29.8,33.8,30.8,27.2,94,86,75,30.47,30.37,8,1,8,0.00
2013-12-15,58.1,42.4,33.1,44.3,35.4,30.3,92,78,56,30.42,30.31,25,5,25,0.00
2013-12-16,47.9,35.2,26.9,37.4,31.3,24.9,95,86,64,30.48,30.33,8,1,8,0.01
2013-12-17,40.4,32.0,24.8,35.6,28.9,22.5,94,89,79,30.33,30.09,9,1,9,0.01
2013-12-18,46.8,37.4,33.2,35.0,29.8,24.6,88,75,44,30.09,29.98,21,3,21,0.00
2013-12-19,39.0,31.9,24.9,27.6,19.0,14.0,75,60,37,30.32,30.08,8,0,8,0.00
2013-12-20,50.8,38.9,25.4,38.9,28.8,18.4,79,68,55,30.16,29.74,33,7,33,0.00
2013-12-21,52.7,49.1,43.1,39.5,37.4,35.6,78,64,56,30.15,29.79,24,9,24,0.00
2013-12-22,52.7,47.8,42.2,41.4,38.8,35.8,83,71,61,30.32,30.14,22,4,22,0.00
2013-12-23,60.4,49.8,41.2,43.7,37.1,28.8,83,62,51,30.50,30.18,36,8,36,0.00
2013-12-24,47.4,35.7,27.4,32.4,27.8,23.5,87,73,55,30.60,30.49,12,1,12,0.00
2013-12-25,37.4,29.7,23.1,30.3,25.5,20.3,91,84,75,30.54,30.41,7,0,7,0.00
2013-12-26,42.5,30.3,22.8,31.7,25.8,20.0,93,84,64,30.43,30.29,4,0,4,0.01
2013-12-27,31.6,27.8,24.2,29.8,25.6,21.7,93,91,89,30.32,30.17,6,1,6,0.00
2013-12-28,45.4,30.9,21.6,34.3,26.3,18.9,92,84,63,30.50,30.31,4,0,4,0.01
2013-12-29,41.8,31.2,23.5,30.3,25.3,20.7,91,79,58,30.50,30.27,7,1,7,0.00
2013-12-30,41.2,36.0,32.3,31.7,29.6,26.8,85,78,68,30.28,30.18,8,1,8,0.00
2013-12-31,55.4,41.0,31.6,38.4,32.5,27.8,87,73,49,30.36,30.20,20,3,20,0.00
2014-1-1,45.7,34.6,26.1,36.1,30.2,23.6,92,84,68,30.44,30.34,4,0,4,0.01
2014-1-2,56.4,38.0,29.9,36.1,31.9,27.0,92,80,38,30.35,29.93,12,2,12,0.00